Вернуться в каталог

STARLINK-34897

АктивенСвязьVLEO
NORAD 65212·PAYLOAD·🇺🇸 United States

Запущен Aug 14, 2025 с Cape Canaveral Space Force Station

Loading…

Ближайшие Пролёты (ближайшие 24 часа)

TLE

СвежийSource: CelesTrak SupGP

Эпоха: Sep 14, 2026, 21:14 UTC

1 65212C 25176Q   26257.88520833 -.00003566  00000+0 -10537-3 0  2573
2 65212  53.1589 349.9185 0001096  84.3405 281.1993 15.34385981    19

Отслеживайте STARLINK-34897 в реальном времени с AllMySat

Download on the App Store